Home > Time Zones > World Clock > Weather > Italy > Milan > Past weeks

Flag for Italy Weather past 2 weeks in Milan, Italy

Now
77 °F

Clear.


Feels Like: 79 °F
Forecast: 77 / 93 °F
Wind: 1 mph from North

Location: Milan / Linate

Current Time: Jul 6, 2015 at 5:49:50 AM

Latest Report: Jul 6, 2015 at 4:50 AM


Visibility: 10 mi

Pressure: 30.04 "Hg

Humidity: 74%

Dew point: 68 °F

Location of MilanLocation

Historic Weather in Milan — Graph

°F

Milan temperature yesterday

Maximum temperature yesterday: 93 °F (at 2:20 PM)
Minimum temperature yesterday: 75 °F (at 4:20 AM)
Average temperature yesterday: 85 °F

Past Weeks' High & Low Weather Summary

 TemperatureHumidityPressure
High93 °F (Jul 3, 4:50 PM)83% (Jun 22, 10:20 PM)30.30 "Hg (Jun 22, 10:20 PM)
Low59 °F (Jun 24, 4:50 AM)25% (Jun 23, 10:20 PM)29.71 "Hg (Jun 23, 4:50 AM)
Average77 °F55%30.07 "Hg
* Reported Jun 21 4:20 AM — Jul 6 4:20 AM, Milan, Weather by CustomWeather, © 2015

Note: Actual official high and low records may vary slightly from our data, if they occured in-between our weather recording intervals... More about our weather records

Advertising

Milan weather history for previous 24 hours

 ConditionsComfort  
Time TempWeatherWind HumidityBarometerVisibility
4:20 AM
Mon, Jul 6
77 °FClear.1 mph79%30.04 "Hg10 mi
3:50 AM77 °FClear.No wind79%30.04 "Hg10 mi
3:20 AM81 °FClear.1 mph70%30.04 "Hg10 mi
2:50 AM82 °FClear.3 mph66%30.04 "Hg10 mi
2:20 AM82 °FClear.2 mph70%30.04 "Hg10 mi
1:50 AM82 °FClear.2 mph70%30.04 "Hg10 mi
1:20 AM84 °FClear.5 mph62%30.07 "Hg10 mi
12:50 AM84 °FClear.6 mph62%30.04 "Hg10 mi
12:20 AM84 °FClear.7 mph62%30.04 "Hg10 mi
11:50 PM
Sun, Jul 5
82 °FClear.3 mph70%30.07 "Hg10 mi
11:20 PM84 °FClear.2 mph66%30.07 "Hg10 mi
10:50 PM84 °FClear.2 mph66%30.07 "Hg10 mi
10:20 PM84 °FClear.1 mph66%30.07 "Hg10 mi
9:50 PM86 °FPassing clouds.3 mph59%30.04 "HgN/A
9:20 PM86 °FSunny.2 mph59%30.04 "Hg10 mi
8:50 PM86 °FSunny.6 mph59%30.04 "Hg10 mi
8:20 PM88 °FSunny.6 mph55%30.04 "Hg10 mi
7:50 PM90 °FPassing clouds.6 mph52%30.01 "HgN/A
7:20 PM91 °FPassing clouds.7 mph49%30.01 "HgN/A
6:50 PM91 °FPassing clouds.5 mph49%30.01 "HgN/A
6:20 PM93 °FPassing clouds.13 mph44%30.01 "HgN/A
5:50 PM93 °FPassing clouds.6 mph47%30.01 "HgN/A
5:20 PM93 °FPassing clouds.5 mph47%30.04 "HgN/A
4:50 PM93 °FPassing clouds.6 mph47%30.04 "HgN/A
4:20 PM93 °FPassing clouds.7 mph44%30.04 "HgN/A
3:50 PM93 °FPassing clouds.7 mph41%30.04 "HgN/A
2:50 PM93 °FSunny.5 mph44%30.07 "Hg10 mi
2:20 PM93 °FSunny.6 mph41%30.07 "Hg10 mi
1:50 PM91 °FSunny.5 mph44%30.07 "Hg10 mi
1:20 PM91 °FSunny.5 mph44%30.07 "Hg10 mi
12:50 PM91 °FPassing clouds.5 mph46%30.09 "HgN/A
12:20 PM90 °FSunny.3 mph49%30.09 "Hg10 mi
11:50 AM88 °FPassing clouds.6 mph52%30.09 "HgN/A
11:20 AM88 °FSunny.5 mph52%30.09 "Hg10 mi
10:50 AM88 °FSunny.5 mph52%30.09 "Hg10 mi
10:20 AM86 °FPassing clouds.5 mph52%30.09 "HgN/A
9:50 AM84 °FSunny.3 mph58%30.09 "Hg10 mi
9:20 AM84 °FPassing clouds.5 mph55%30.12 "HgN/A
8:50 AM82 °FPassing clouds.3 mph62%30.12 "HgN/A
8:20 AM81 °FPassing clouds.3 mph66%30.12 "HgN/A
7:50 AM81 °FSunny.2 mph66%30.09 "Hg10 mi
7:20 AM79 °FSunny.1 mph74%30.09 "Hg10 mi
6:50 AM75 °FSunny.1 mph78%30.09 "Hg10 mi
6:20 AM75 °FClear.No wind78%30.09 "Hg10 mi
5:50 AM75 °FClear.No wind74%30.09 "Hg10 mi
5:20 AM77 °FClear.2 mph74%30.09 "Hg10 mi
Weather by CustomWeather, © 2015

See weather overviewHow to use our weather pages